Temp
1 2 2 2 2 2 2 3 3 3 3 3 4 4 4 4 4 4 4 4 4 4 4 4 4 3 3 3 4 4 4 4 4 3 2 3 4 5 5 5 6 6 6 6 6 6 6 7 7 7 7 7 7 7 7 7 7 7 7 7 7 7 8 8 8 8 9 9 9
1 1 1 1 1 2 2 2 2 3 3 3 3 4 4 4 4 4 4 4 4 4 4 4 4 4 4 4 4 4 4 4 4 3 3 3 4 5 6 6 5 6 6 6 6 6 7 7 7 7 7 7 7 7 7 8 7 7 7 7 7 7 7 8 8 8 9 9 9
1 1 1 1 1 2 2 2 2 2 3 3 3 3 4 4 4 4 4 4 4 4 5 5 5 4 4 4 4 4 4 4 4 4 4 4 4 5 6 6 5 5 6 6 6 6 6 7 7 7 7 7 7 7 8 8 7 7 7 7 7 7 7 8 8 8 9 9 9
0 1 1 1 1 1 1 2 2 2 2 3 3 3 3 4 4 4 4 4 4 4 5 5 5 5 5 5 4 4 4 4 4 4 5 5 5 5 5 5 5 5 6 6 6 6 6 6 7 7 7 7 8 8 8 8 7 7 7 8 8 8 8 8 8 8 8 9 9
0 0 0 1 1 1 1 1 1 2 2 2 3 3 3 4 4 4 4 5 5 5 5 5 5 5 5 5 5 5 4 4 4 4 5 5 5 5 6 6 6 5 5 6 6 6 6 6 6 7 7 7 8 8 8 8 7 8 8 8 8 8 8 8 8 8 8 9 9
0 0 0 0 0 1 1 1 1 1 2 2 2 3 3 4 4 4 4 4 5 5 5 5 5 5 5 5 5 5 5 4 4 4 5 5 5 6 6 6 6 5 5 5 6 6 6 6 6 7 7 7 7 8 8 8 8 8 8 8 8 8 8 8 8 8 8 9 9
-0 -0 -0 -0 0 0 1 1 1 1 1 1 2 2 3 3 4 4 4 4 4 5 5 5 5 5 5 5 5 5 5 5 5 5 5 5 5 6 6 6 6 6 5 5 5 5 6 6 6 6 7 7 7 8 8 8 8 8 8 8 8 8 8 8 8 8 8 9 9
-0 -0 -0 -0 -0 -0 0 1 1 1 1 1 1 2 2 3 3 3 4 4 4 4 5 5 5 5 5 5 5 5 5 5 5 5 5 5 5 5 6 6 6 6 5 5 5 5 5 6 6 6 7 7 7 8 9 9 9 9 9 9 8 8 8 8 8 8 8 8 9
-1 -1 -0 -0 -0 -0 -0 0 1 1 1 1 1 1 2 2 3 3 3 4 4 4 4 5 5 5 5 5 6 6 5 5 5 5 5 5 5 5 6 6 6 6 5 5 5 5 5 6 6 6 6 6 7 8 8 9 9 9 9 9 8 8 8 8 8 8 8 8 9
-1 -1 -1 -1 -1 -1 -0 -0 0 0 1 1 1 1 1 2 2 2 3 3 4 4 4 4 5 5 5 5 6 6 6 6 6 6 5 5 5 5 6 6 6 6 6 5 5 5 5 6 6 6 6 6 7 8 8 9 9 9 9 9 8 8 8 8 8 8 8 8 9
-1 -1 -1 -1 -1 -1 -1 -0 -0 -0 0 0 1 1 1 1 1 2 2 3 3 4 4 4 5 5 5 5 5 5 6 6 6 6 6 6 6 6 6 6 6 6 6 5 5 5 5 5 6 6 6 6 7 7 8 9 9 9 9 8 8 8 8 8 8 8 8 9 9
-2 -2 -1 -1 -1 -1 -1 -1 -1 -0 -0 0 0 1 1 1 1 1 2 2 2 3 4 4 4 5 5 5 5 5 5 6 6 6 6 6 6 6 6 6 6 6 6 5 5 5 5 5 6 6 6 6 6 7 8 9 9 9 9 9 8 8 8 8 8 8 9 9 9
-2 -2 -2 -1 -1 -1 -1 -1 -1 -1 -1 -0 0 0 1 1 1 1 1 2 2 3 3 4 4 4 5 5 5 5 5 5 6 6 6 6 7 6 6 6 6 6 6 6 6 5 5 5 5 5 5 6 6 6 6 8 9 10 10 9 8 8 8 8 8 9 9 9 9
-2 -2 -2 -2 -2 -1 -1 -1 -1 -1 -1 -1 -0 0 0 1 1 1 1 1 2 2 3 3 4 4 4 4 5 5 5 5 6 6 6 6 7 7 7 7 7 7 6 6 6 5 5 5 5 5 5 5 5 5 5 6 8 9 10 9 9 8 8 8 8 9 9 9 9
-2 -2 -2 -2 -2 -2 -1 -1 -1 -1 -1 -1 -1 -0 0 0 1 1 1 1 1 2 2 3 3 4 4 4 5 5 5 5 5 6 6 6 7 7 7 7 7 7 7 6 6 5 5 5 5 5 5 5 4 4 5 5 7 9 9 9 9 9 8 8 9 9 9 9 9
-2 -2 -2 -2 -2 -2 -2 -2 -1 -1 -1 -1 -1 -1 -0 0 0 1 1 1 1 1 2 2 3 3 4 4 4 5 5 5 5 6 6 6 7 7 7 8 8 8 7 7 6 6 5 5 5 5 5 5 4 4 4 5 7 8 9 9 9 9 9 8 9 9 9 10 10
-2 -2 -2 -2 -2 -2 -2 -2 -2 -2 -1 -1 -1 -1 -1 -1 -0 0 0 1 1 1 1 2 2 3 3 4 4 4 5 5 5 5 6 6 7 7 8 8 8 8 7 7 7 6 5 5 5 5 5 5 5 4 4 5 7 8 8 9 9 9 9 8 9 9 9 10 10
-3 -3 -3 -3 -3 -3 -2 -2 -2 -2 -2 -2 -1 -1 -1 -1 -1 -0 0 0 0 1 1 2 2 3 3 4 4 4 5 5 5 5 6 6 6 7 7 8 8 8 7 7 7 6 5 5 5 5 5 5 5 4 4 5 6 7 8 8 9 9 9 9 9 9 9 10 10
-3 -3 -3 -3 -3 -3 -3 -3 -2 -2 -2 -2 -2 -1 -1 -1 -1 -1 -0 -0 0 0 1 1 2 2 3 3 4 4 4 5 5 5 5 6 6 7 7 7 8 8 8 7 7 6 6 5 5 5 5 5 4 4 4 4 6 7 7 8 9 9 9 9 9 9 9 9 9
-3 -3 -3 -3 -3 -3 -3 -3 -3 -3 -2 -2 -2 -1 -1 -1 -1 -1 -1 -0 -0 0 1 1 2 2 2 3 4 4 4 5 5 5 5 6 6 6 7 7 8 8 8 7 7 6 6 5 5 5 5 4 4 4 4 4 5 6 7 8 8 9 9 9 9 9 9 9 9
-4 -4 -4 -3 -3 -3 -3 -3 -3 -3 -3 -2 -2 -2 -1 -1 -1 -1 -1 -0 -0 0 0 1 1 2 2 3 3 4 4 4 5 5 5 5 6 6 6 7 7 7 7 7 7 6 6 5 5 5 4 4 3 3 3 3 4 5 6 7 8 8 9 9 9 9 9 9 9
-4 -4 -4 -4 -4 -4 -3 -3 -3 -3 -3 -3 -2 -2 -1 -1 -1 -1 -1 -1 -0 -0 0 0 1 1 2 2 3 3 4 4 4 5 5 5 5 5 6 6 7 7 7 7 6 6 5 5 5 5 4 3 3 3 3 3 3 4 5 7 8 8 8 9 9 9 9 9 9
-4 -4 -4 -4 -4 -4 -3 -3 -3 -3 -3 -2 -2 -2 -1 -1 -1 -1 -1 -0 -0 -0 0 0 1 1 2 2 3 3 4 4 4 5 5 5 5 5 5 6 6 7 7 6 6 5 4 4 5 5 4 3 2 3 3 3 3 3 5 7 8 8 8 9 9 9 8 8 9
-5 -5 -4 -4 -4 -4 -4 -3 -3 -3 -3 -2 -2 -2 -1 -1 -1 -1 -1 -0 -0 -0 0 0 0 1 1 2 2 3 3 4 4 4 4 5 5 5 5 5 6 6 6 6 5 5 4 4 4 5 4 3 2 2 3 3 3 3 5 7 8 8 9 9 9 9 8 8 8
-5 -5 -5 -4 -4 -4 -4 -3 -3 -3 -3 -2 -2 -2 -2 -1 -1 -1 -1 -1 -0 -0 -0 0 0 0 1 2 2 2 3 3 4 4 4 4 4 5 5 5 5 6 6 6 5 4 4 4 4 5 4 3 2 2 3 3 3 4 5 6 7 8 8 9 9 8 8 8 8
-6 -5 -5 -5 -4 -4 -4 -3 -3 -3 -3 -2 -2 -2 -2 -1 -1 -1 -1 -1 -0 -0 -0 0 0 0 1 1 2 2 3 3 4 4 4 4 4 4 5 5 5 5 5 5 5 4 4 4 4 4 4 3 2 2 2 2 3 4 5 6 7 7 8 8 8 8 8 8 8
-6 -6 -6 -5 -4 -4 -4 -3 -3 -3 -2 -2 -2 -2 -2 -1 -1 -1 -1 -1 -1 -0 -0 -0 0 0 0 1 1 2 2 3 3 4 4 4 4 4 4 5 5 5 5 5 5 4 3 3 4 3 3 3 2 2 2 2 3 3 4 5 6 7 8 8 8 8 8 8 8
-7 -6 -6 -6 -5 -4 -3 -3 -3 -2 -2 -2 -2 -2 -2 -2 -1 -1 -1 -1 -1 -1 -0 -0 -0 -0 0 1 1 1 2 2 3 3 4 4 4 4 4 4 5 5 5 5 4 4 3 3 3 3 3 3 2 2 2 2 2 3 3 5 6 7 7 8 8 8 8 8 8
-7 -7 -6 -6 -5 -4 -3 -3 -2 -2 -2 -2 -2 -2 -2 -2 -2 -1 -1 -1 -1 -1 -1 -0 -0 -0 0 0 1 1 1 2 2 3 3 4 4 4 4 4 4 4 4 4 4 4 4 3 3 2 2 2 2 2 2 2 2 2 3 5 6 7 7 7 7 8 8 8 8
-7 -7 -7 -6 -5 -4 -3 -3 -2 -2 -2 -2 -2 -2 -2 -2 -2 -2 -2 -1 -1 -1 -1 -1 -1 -0 -0 0 1 1 1 1 2 2 3 3 4 4 4 4 4 4 4 4 4 4 4 3 3 2 2 2 2 2 2 2 2 2 3 5 6 6 7 7 7 8 8 8 8
-7 -7 -6 -6 -5 -4 -3 -3 -3 -2 -2 -2 -2 -2 -2 -2 -2 -2 -2 -2 -2 -1 -1 -1 -1 -0 -0 -0 0 1 1 1 2 2 3 3 3 4 4 4 4 4 4 4 4 4 3 3 3 2 2 1 1 2 2 2 2 3 4 5 6 6 6 7 7 8 8 8 8
-7 -7 -6 -6 -5 -4 -3 -3 -3 -3 -2 -2 -2 -2 -2 -2 -2 -2 -2 -2 -2 -2 -1 -1 -1 -1 -0 -0 0 1 1 1 1 2 2 3 3 3 3 4 4 4 4 4 4 4 3 3 2 2 1 1 1 1 2 2 2 3 4 5 5 5 6 6 7 7 8 8 8
-7 -6 -6 -6 -5 -4 -3 -3 -3 -3 -2 -2 -2 -3 -3 -3 -2 -2 -2 -2 -2 -2 -2 -1 -1 -1 -1 -0 -0 0 1 1 1 1 2 2 3 3 3 3 4 4 4 4 4 4 3 2 2 2 1 1 0 1 2 2 2 3 4 5 5 5 5 6 7 7 7 7 8
-6 -6 -6 -5 -5 -4 -4 -3 -3 -3 -2 -2 -3 -3 -3 -3 -3 -3 -2 -2 -2 -2 -2 -2 -1 -1 -1 -1 -0 0 1 1 1 1 2 2 2 3 3 3 4 4 4 4 4 3 3 2 2 1 1 1 0 1 1 1 2 2 3 4 4 4 5 6 6 7 7 7 7
-6 -6 -6 -5 -5 -4 -4 -3 -3 -3 -3 -3 -3 -3 -3 -3 -3 -3 -3 -3 -3 -2 -2 -2 -2 -1 -1 -1 -1 -0 0 1 1 1 1 2 2 3 3 3 3 3 3 3 3 3 3 2 1 1 1 1 1 1 1 1 1 2 3 4 4 4 4 5 6 6 7 7 7
-6 -6 -6 -6 -5 -5 -4 -4 -3 -3 -3 -3 -3 -3 -3 -3 -3 -3 -3 -3 -3 -3 -2 -2 -2 -1 -1 -1 -1 -1 -0 1 1 1 1 1 2 2 3 3 3 3 3 3 3 3 3 2 1 1 1 1 0 1 1 1 1 2 3 4 3 3 4 5 5 6 6 7 7
-6 -6 -6 -6 -5 -5 -5 -4 -4 -4 -3 -3 -3 -4 -4 -4 -4 -3 -3 -3 -3 -3 -2 -2 -2 -2 -1 -1 -1 -1 -0 0 1 1 1 1 2 2 3 3 3 3 3 3 3 3 2 2 1 0 0 0 0 1 1 1 1 2 3 3 3 3 4 5 5 6 6 7 7
-6 -6 -6 -6 -6 -5 -5 -5 -4 -4 -4 -4 -4 -4 -4 -4 -4 -4 -4 -4 -3 -3 -3 -2 -2 -2 -2 -1 -1 -1 -1 -0 0 1 1 1 1 2 2 2 2 3 3 3 3 3 2 1 1 0 0 0 1 1 1 1 1 2 3 3 3 3 4 5 5 6 6 7 7
-6 -6 -6 -6 -6 -5 -5 -5 -5 -5 -4 -4 -4 -4 -4 -5 -4 -4 -4 -4 -4 -4 -3 -3 -2 -2 -2 -2 -1 -1 -1 -0 0 0 1 1 1 2 2 2 2 2 2 2 3 2 2 1 1 0 0 0 1 1 1 1 1 2 3 2 2 3 4 4 5 6 6 7 7
-6 -6 -6 -6 -6 -5 -5 -5 -5 -5 -5 -5 -5 -5 -5 -5 -5 -4 -4 -4 -4 -4 -4 -3 -3 -2 -2 -2 -2 -1 -1 -1 -0 0 1 1 1 1 1 2 2 2 2 2 2 2 2 2 1 0 0 0 1 1 1 1 2 2 2 2 2 3 4 4 5 6 6 7 7
-6 -6 -6 -5 -5 -5 -5 -5 -5 -4 -4 -5 -5 -5 -5 -5 -5 -5 -4 -4 -4 -4 -4 -3 -3 -3 -2 -2 -2 -2 -1 -1 -0 0 0 1 1 1 1 2 2 2 2 2 2 2 2 2 1 0 0 0 0 1 1 1 2 2 2 2 2 3 4 4 5 6 6 7 7
Height
1458 1457 1456 1455 1454 1454 1453 1453 1452 1452 1451 1451 1450 1450 1450 1449 1448 1448 1447 1447 1447 1446 1446 1446 1446 1446 1445 1445 1445 1444 1444 1444 1444 1445 1445 1444 1444 1444 1444 1444 1445 1445 1445 1445 1445 1445 1446 1446 1447 1448 1448 1448 1448 1448 1448 1448 1448 1448 1448 1448 1448 1448 1447 1447 1447 1447 1447 1447 1447
1458 1457 1456 1455 1454 1453 1453 1452 1451 1451 1450 1450 1449 1449 1449 1448 1448 1447 1447 1446 1446 1445 1445 1445 1444 1444 1444 1444 1444 1443 1443 1443 1443 1444 1444 1444 1443 1443 1443 1443 1444 1444 1444 1444 1444 1445 1445 1446 1446 1447 1448 1448 1447 1447 1447 1447 1447 1447 1447 1447 1447 1447 1447 1447 1446 1446 1446 1446 1446
1457 1456 1455 1454 1453 1453 1452 1451 1450 1450 1449 1449 1448 1448 1448 1447 1447 1446 1446 1445 1445 1444 1444 1443 1443 1443 1443 1443 1443 1442 1442 1442 1442 1442 1443 1443 1442 1442 1442 1443 1443 1443 1443 1443 1444 1444 1444 1445 1446 1447 1447 1447 1447 1446 1446 1447 1447 1447 1447 1446 1446 1446 1446 1446 1446 1446 1446 1446 1446
1457 1456 1455 1454 1453 1452 1451 1450 1449 1448 1448 1448 1447 1447 1446 1446 1446 1445 1445 1445 1444 1443 1443 1443 1443 1442 1442 1442 1442 1441 1441 1441 1441 1441 1441 1441 1441 1441 1441 1441 1442 1442 1442 1443 1443 1443 1444 1444 1445 1446 1446 1446 1446 1446 1446 1447 1447 1446 1446 1446 1446 1446 1446 1446 1445 1445 1445 1445 1445
1456 1455 1454 1453 1452 1451 1450 1449 1448 1448 1447 1446 1446 1445 1445 1445 1444 1444 1444 1444 1443 1443 1442 1442 1442 1441 1441 1441 1440 1440 1440 1440 1440 1440 1440 1439 1439 1440 1440 1440 1441 1441 1441 1442 1442 1442 1443 1443 1444 1444 1445 1445 1445 1445 1446 1446 1446 1446 1446 1446 1445 1445 1445 1445 1445 1445 1445 1445 1445
1455 1454 1453 1453 1452 1451 1449 1448 1448 1447 1446 1445 1445 1444 1444 1443 1443 1443 1443 1443 1442 1442 1442 1441 1441 1440 1440 1440 1439 1439 1439 1439 1439 1439 1438 1438 1438 1438 1438 1439 1439 1440 1440 1441 1441 1442 1442 1443 1443 1443 1444 1444 1444 1445 1445 1445 1445 1445 1445 1445 1445 1445 1445 1444 1444 1444 1444 1444 1444
1454 1453 1453 1452 1451 1450 1449 1448 1447 1446 1445 1444 1444 1443 1443 1442 1442 1442 1441 1441 1441 1441 1441 1440 1440 1439 1439 1439 1438 1438 1438 1438 1438 1438 1438 1437 1437 1437 1438 1438 1438 1439 1439 1440 1440 1441 1441 1442 1442 1443 1443 1443 1443 1444 1444 1444 1445 1445 1445 1444 1445 1444 1444 1444 1444 1444 1444 1443 1443
1454 1453 1452 1451 1450 1449 1448 1447 1446 1445 1444 1444 1443 1442 1441 1441 1441 1440 1440 1440 1440 1440 1439 1439 1439 1438 1438 1438 1438 1437 1437 1437 1437 1437 1437 1436 1436 1436 1436 1436 1437 1438 1438 1439 1439 1440 1440 1440 1441 1442 1442 1443 1443 1443 1443 1444 1444 1444 1444 1444 1444 1444 1444 1443 1443 1443 1443 1443 1443
1453 1452 1451 1450 1449 1448 1448 1447 1446 1445 1444 1443 1442 1441 1440 1440 1439 1439 1439 1439 1438 1438 1438 1438 1438 1438 1438 1437 1437 1436 1436 1436 1436 1436 1435 1435 1435 1435 1435 1435 1436 1436 1437 1438 1438 1439 1439 1439 1440 1440 1441 1442 1442 1442 1443 1443 1443 1443 1443 1443 1443 1443 1443 1443 1443 1443 1443 1443 1443
1452 1451 1450 1449 1448 1448 1447 1446 1445 1444 1443 1442 1441 1441 1440 1439 1438 1438 1438 1437 1437 1437 1437 1437 1437 1437 1437 1436 1436 1435 1435 1435 1435 1434 1434 1434 1434 1434 1434 1434 1434 1435 1435 1436 1437 1438 1438 1438 1439 1439 1440 1440 1441 1441 1442 1442 1442 1442 1443 1443 1443 1443 1443 1442 1442 1442 1442 1442 1442
1451 1450 1449 1448 1448 1447 1446 1445 1444 1443 1443 1442 1441 1440 1439 1438 1437 1437 1436 1436 1436 1436 1436 1436 1436 1436 1436 1435 1435 1434 1434 1434 1433 1433 1433 1433 1433 1433 1433 1433 1433 1434 1434 1435 1436 1436 1437 1437 1438 1438 1439 1439 1440 1440 1440 1441 1441 1441 1442 1442 1442 1442 1442 1442 1442 1442 1442 1442 1442
1450 1449 1448 1447 1447 1446 1445 1444 1443 1442 1442 1441 1440 1439 1438 1437 1436 1436 1435 1435 1435 1435 1435 1435 1434 1434 1434 1434 1434 1433 1433 1433 1433 1432 1432 1432 1432 1432 1432 1432 1432 1433 1433 1434 1434 1435 1436 1436 1436 1437 1438 1438 1439 1439 1439 1439 1440 1440 1441 1441 1441 1441 1441 1441 1441 1441 1441 1441 1441
1449 1448 1447 1446 1445 1445 1444 1443 1442 1441 1441 1440 1439 1438 1437 1436 1436 1435 1434 1434 1433 1433 1433 1433 1433 1433 1433 1433 1433 1433 1432 1432 1432 1431 1431 1431 1431 1430 1430 1431 1431 1431 1432 1432 1433 1434 1434 1435 1435 1436 1437 1438 1438 1438 1438 1438 1438 1439 1439 1440 1440 1440 1441 1441 1441 1441 1441 1441 1441
1449 1448 1447 1445 1444 1443 1443 1442 1441 1440 1440 1439 1438 1437 1436 1436 1435 1434 1433 1433 1432 1432 1432 1432 1432 1432 1432 1432 1432 1431 1431 1431 1430 1430 1430 1430 1429 1429 1429 1429 1429 1430 1430 1431 1432 1433 1433 1434 1434 1435 1436 1437 1437 1438 1438 1437 1437 1438 1438 1439 1439 1440 1440 1440 1440 1440 1440 1440 1440
1448 1447 1446 1445 1444 1443 1442 1441 1440 1439 1438 1438 1437 1436 1435 1435 1434 1433 1433 1432 1431 1431 1430 1430 1430 1431 1431 1430 1430 1430 1430 1430 1429 1429 1429 1428 1428 1428 1428 1428 1428 1428 1429 1430 1430 1431 1432 1433 1433 1434 1435 1436 1437 1437 1437 1436 1436 1437 1437 1438 1438 1439 1439 1439 1439 1439 1439 1440 1440
1447 1446 1445 1444 1443 1442 1441 1440 1439 1438 1438 1437 1436 1435 1434 1434 1433 1432 1432 1431 1430 1430 1429 1429 1429 1429 1429 1429 1429 1429 1429 1428 1428 1428 1428 1428 1428 1427 1427 1427 1427 1427 1428 1428 1429 1430 1431 1431 1432 1433 1433 1434 1435 1436 1436 1435 1435 1436 1437 1437 1438 1438 1438 1439 1439 1439 1439 1439 1440
1446 1445 1444 1443 1442 1441 1440 1439 1438 1437 1437 1436 1435 1434 1433 1433 1432 1431 1431 1430 1429 1428 1428 1428 1428 1428 1428 1428 1428 1428 1428 1427 1427 1427 1427 1426 1426 1426 1426 1426 1426 1426 1427 1427 1428 1428 1429 1430 1431 1432 1432 1433 1434 1434 1435 1434 1434 1435 1436 1436 1437 1437 1438 1438 1438 1438 1438 1439 1439
1445 1444 1443 1442 1441 1440 1439 1438 1437 1436 1435 1435 1434 1433 1432 1432 1431 1430 1430 1429 1428 1428 1427 1427 1426 1426 1426 1426 1426 1426 1426 1426 1426 1426 1426 1425 1425 1425 1425 1425 1425 1425 1425 1426 1426 1427 1428 1428 1429 1430 1431 1432 1433 1433 1434 1434 1433 1434 1435 1435 1436 1436 1437 1438 1438 1438 1438 1439 1439
1444 1443 1442 1441 1440 1439 1438 1437 1436 1435 1434 1433 1433 1432 1431 1430 1430 1429 1428 1428 1427 1427 1426 1425 1425 1425 1425 1425 1425 1425 1425 1425 1425 1425 1424 1424 1424 1424 1424 1424 1424 1424 1424 1425 1425 1426 1427 1427 1428 1429 1430 1430 1431 1433 1433 1433 1433 1433 1434 1434 1435 1436 1436 1437 1438 1438 1438 1438 1439
1443 1442 1441 1440 1439 1438 1437 1436 1435 1434 1433 1432 1431 1430 1430 1429 1428 1428 1427 1427 1426 1426 1425 1424 1424 1424 1423 1423 1423 1423 1424 1424 1423 1423 1423 1423 1423 1423 1423 1423 1423 1423 1423 1424 1424 1425 1426 1426 1427 1428 1428 1429 1430 1432 1433 1433 1432 1432 1433 1433 1434 1435 1436 1437 1437 1437 1438 1438 1438
1443 1442 1441 1439 1438 1438 1436 1435 1434 1433 1432 1431 1430 1429 1428 1428 1427 1427 1426 1425 1425 1424 1424 1423 1423 1423 1422 1422 1422 1422 1422 1423 1423 1422 1422 1422 1422 1422 1422 1422 1422 1422 1423 1423 1423 1424 1424 1425 1426 1427 1428 1428 1429 1431 1431 1431 1431 1432 1432 1433 1433 1434 1435 1436 1436 1437 1437 1438 1438
1442 1441 1440 1438 1438 1436 1435 1434 1433 1432 1431 1430 1429 1428 1427 1427 1426 1425 1425 1424 1424 1423 1423 1422 1422 1421 1421 1421 1421 1421 1421 1421 1421 1421 1421 1421 1421 1421 1421 1421 1421 1421 1422 1422 1422 1423 1423 1424 1425 1426 1426 1427 1429 1430 1430 1430 1430 1431 1431 1432 1433 1433 1434 1435 1436 1436 1437 1437 1438
1441 1440 1438 1438 1436 1435 1434 1433 1432 1431 1430 1429 1428 1427 1426 1425 1424 1424 1423 1423 1423 1422 1422 1421 1421 1420 1420 1420 1419 1419 1420 1420 1420 1420 1420 1420 1420 1420 1420 1420 1420 1420 1420 1421 1421 1422 1423 1423 1424 1425 1425 1426 1428 1429 1429 1429 1430 1430 1430 1431 1432 1433 1434 1435 1435 1436 1437 1437 1438
1440 1439 1438 1436 1435 1434 1433 1432 1431 1430 1428 1428 1427 1426 1425 1424 1423 1423 1422 1422 1421 1421 1420 1420 1419 1419 1419 1418 1418 1418 1418 1418 1418 1419 1419 1419 1419 1419 1419 1419 1419 1419 1419 1420 1420 1421 1422 1423 1423 1423 1424 1425 1428 1428 1428 1428 1429 1429 1429 1430 1431 1432 1433 1434 1435 1436 1436 1437 1437
1439 1438 1436 1435 1434 1433 1432 1431 1429 1428 1427 1426 1425 1424 1423 1423 1422 1421 1421 1420 1420 1419 1419 1419 1418 1418 1418 1417 1417 1417 1417 1417 1417 1418 1418 1418 1418 1418 1418 1418 1418 1418 1419 1419 1419 1420 1421 1421 1422 1423 1423 1424 1426 1428 1428 1427 1428 1428 1429 1429 1430 1431 1432 1433 1434 1435 1436 1436 1437
1438 1436 1435 1434 1433 1432 1431 1429 1428 1427 1426 1425 1424 1423 1422 1421 1421 1420 1419 1419 1418 1418 1418 1417 1417 1417 1416 1416 1416 1416 1416 1416 1416 1416 1416 1417 1417 1417 1417 1417 1417 1418 1418 1418 1418 1419 1420 1421 1421 1422 1423 1424 1425 1427 1427 1427 1427 1427 1428 1428 1429 1430 1432 1433 1434 1434 1435 1436 1436
1436 1435 1434 1433 1432 1431 1429 1428 1427 1426 1425 1424 1423 1422 1421 1420 1419 1419 1418 1418 1417 1417 1416 1416 1416 1416 1415 1415 1415 1414 1414 1415 1415 1415 1415 1415 1415 1415 1415 1416 1416 1417 1417 1417 1417 1418 1419 1420 1420 1421 1422 1423 1424 1426 1427 1427 1426 1427 1427 1428 1428 1430 1431 1432 1433 1434 1434 1435 1436
1435 1434 1433 1431 1430 1429 1428 1427 1426 1425 1423 1423 1422 1421 1420 1419 1418 1418 1417 1416 1416 1415 1415 1415 1414 1414 1414 1414 1413 1413 1413 1413 1413 1414 1414 1414 1414 1414 1414 1414 1415 1415 1416 1416 1416 1417 1418 1419 1419 1420 1421 1422 1423 1424 1426 1426 1426 1426 1426 1427 1428 1429 1430 1432 1433 1433 1434 1435 1436
1434 1433 1431 1430 1429 1428 1427 1426 1424 1423 1422 1421 1420 1419 1419 1418 1417 1416 1416 1415 1414 1414 1413 1413 1413 1413 1413 1413 1412 1412 1412 1412 1412 1412 1413 1413 1413 1413 1413 1413 1413 1414 1415 1415 1415 1416 1417 1418 1418 1419 1420 1421 1422 1423 1424 1425 1425 1425 1425 1426 1427 1428 1430 1431 1432 1433 1433 1434 1435
1433 1431 1430 1428 1427 1426 1425 1424 1423 1422 1421 1420 1419 1418 1417 1417 1416 1415 1414 1414 1413 1413 1412 1412 1412 1412 1411 1411 1411 1411 1411 1411 1411 1411 1411 1412 1412 1412 1412 1412 1413 1413 1413 1414 1414 1415 1416 1416 1417 1418 1419 1421 1422 1423 1423 1424 1424 1424 1424 1425 1426 1428 1429 1430 1431 1432 1433 1433 1435
1432 1430 1428 1427 1426 1425 1424 1423 1422 1421 1420 1419 1418 1417 1416 1415 1414 1414 1413 1413 1412 1411 1411 1411 1410 1410 1410 1410 1410 1409 1409 1409 1410 1410 1410 1410 1410 1411 1411 1411 1411 1412 1412 1413 1413 1414 1415 1415 1416 1417 1418 1420 1421 1421 1422 1423 1423 1423 1423 1424 1426 1427 1428 1429 1430 1431 1432 1433 1434
1430 1429 1427 1426 1424 1423 1423 1422 1421 1419 1418 1417 1416 1415 1414 1414 1413 1413 1412 1411 1410 1410 1410 1409 1409 1409 1409 1408 1408 1408 1408 1408 1408 1408 1409 1409 1409 1409 1409 1410 1410 1410 1411 1412 1412 1413 1413 1414 1415 1416 1418 1419 1420 1420 1421 1422 1422 1422 1423 1423 1425 1426 1428 1428 1429 1431 1432 1433 1434
1429 1427 1426 1424 1423 1422 1421 1420 1419 1418 1417 1416 1415 1414 1413 1413 1412 1411 1411 1410 1409 1408 1408 1408 1408 1408 1407 1407 1407 1407 1407 1407 1407 1407 1408 1408 1408 1408 1408 1408 1409 1409 1410 1411 1411 1412 1413 1414 1415 1415 1417 1418 1419 1420 1420 1420 1421 1421 1422 1423 1424 1426 1427 1428 1429 1430 1431 1432 1433
1427 1426 1424 1423 1422 1421 1419 1419 1418 1417 1416 1414 1413 1413 1412 1411 1410 1410 1409 1408 1408 1407 1407 1407 1406 1406 1406 1406 1406 1406 1406 1406 1406 1406 1406 1406 1407 1407 1407 1407 1408 1408 1409 1409 1410 1411 1412 1413 1414 1415 1416 1418 1419 1419 1419 1419 1420 1420 1421 1423 1424 1425 1426 1427 1428 1429 1430 1431 1433
1426 1424 1423 1422 1420 1419 1418 1417 1416 1415 1414 1413 1412 1411 1410 1410 1409 1408 1408 1407 1407 1406 1406 1405 1405 1405 1404 1404 1404 1404 1404 1404 1404 1404 1405 1405 1405 1406 1406 1406 1407 1407 1408 1408 1409 1410 1411 1412 1413 1414 1415 1417 1418 1418 1418 1418 1419 1420 1421 1422 1423 1424 1425 1426 1427 1428 1430 1431 1432
1425 1423 1422 1420 1419 1418 1417 1416 1415 1414 1413 1412 1411 1410 1409 1408 1408 1407 1407 1406 1405 1404 1404 1404 1403 1403 1403 1403 1403 1403 1403 1403 1403 1403 1403 1404 1404 1404 1404 1405 1405 1406 1407 1407 1408 1409 1410 1411 1413 1414 1415 1416 1416 1417 1417 1418 1418 1419 1420 1421 1422 1423 1424 1425 1426 1428 1429 1430 1431
1423 1422 1420 1419 1418 1416 1415 1414 1413 1412 1411 1410 1409 1408 1408 1407 1406 1406 1405 1404 1404 1403 1403 1402 1402 1402 1402 1402 1402 1402 1402 1402 1402 1402 1402 1403 1403 1403 1403 1404 1404 1405 1405 1406 1407 1408 1409 1410 1412 1413 1414 1414 1415 1415 1416 1417 1417 1418 1419 1420 1421 1422 1423 1424 1425 1427 1428 1429 1431
1422 1421 1419 1418 1416 1415 1414 1413 1412 1411 1410 1408 1408 1407 1406 1405 1405 1404 1404 1403 1402 1402 1401 1400 1400 1400 1400 1400 1400 1400 1400 1400 1400 1400 1401 1401 1402 1402 1402 1403 1403 1404 1404 1405 1406 1407 1408 1409 1411 1412 1413 1413 1413 1414 1415 1415 1416 1417 1418 1419 1420 1421 1422 1423 1424 1426 1427 1429 1430
1420 1419 1418 1417 1415 1414 1413 1411 1410 1409 1408 1407 1406 1405 1405 1404 1403 1403 1402 1402 1401 1400 1400 1399 1399 1398 1398 1398 1398 1398 1399 1399 1399 1399 1399 1400 1400 1401 1401 1402 1402 1403 1403 1404 1405 1406 1407 1408 1410 1411 1412 1412 1412 1413 1414 1414 1415 1416 1417 1418 1419 1420 1421 1422 1423 1425 1427 1428 1430
1419 1418 1417 1415 1414 1412 1411 1410 1409 1408 1407 1406 1405 1404 1403 1403 1402 1401 1401 1400 1400 1399 1398 1398 1397 1397 1397 1397 1397 1397 1397 1397 1398 1398 1398 1398 1399 1399 1400 1400 1401 1401 1402 1403 1404 1405 1406 1407 1408 1410 1411 1411 1411 1412 1413 1413 1414 1415 1416 1417 1418 1419 1420 1421 1423 1424 1426 1428 1429
1417 1416 1415 1413 1412 1411 1410 1408 1407 1407 1406 1405 1404 1403 1402 1401 1400 1400 1399 1399 1398 1398 1397 1397 1396 1396 1396 1396 1395 1395 1395 1396 1396 1396 1397 1397 1398 1398 1399 1399 1400 1400 1401 1402 1403 1403 1405 1406 1407 1409 1410 1409 1410 1411 1412 1412 1413 1414 1415 1416 1417 1418 1419 1420 1421 1423 1425 1427 1428
Wind_Speed
17 16 15 14 14 13 13 13 13 13 13 14 14 14 14 13 13 12 12 13 14 14 15 15 15 15 15 15 16 16 15 13 10 9 10 13 14 15 15 15 15 14 13 12 13 14 14 15 15 14 14 13 12 12 13 13 13 13 13 12 11 10 9 8 6 5 4 4 3
18 17 16 15 14 14 14 13 13 13 13 14 14 15 15 14 13 13 12 12 13 14 14 14 14 15 15 15 15 15 15 14 11 10 11 14 15 15 15 15 14 14 13 13 14 14 15 14 13 12 13 14 14 14 14 13 13 14 14 13 12 11 9 8 6 5 4 3 3
18 17 17 16 15 15 14 13 13 13 13 13 14 15 15 15 14 14 13 12 12 13 13 14 14 14 14 15 15 15 15 14 13 12 13 14 15 14 14 14 14 14 14 14 14 15 14 13 12 12 13 15 16 16 15 14 14 15 15 14 13 11 9 8 6 5 4 3 3
18 18 17 17 16 16 15 15 14 13 13 13 14 14 15 15 15 15 14 13 13 13 13 13 14 14 14 14 14 14 14 14 14 14 13 13 13 13 13 14 14 14 14 14 14 14 14 13 13 13 14 15 16 16 14 13 14 15 15 14 13 11 9 7 6 5 4 4 3
18 18 17 17 17 17 17 16 15 14 14 14 14 14 15 15 16 15 15 14 14 13 13 13 13 13 13 13 13 14 14 14 14 14 14 14 14 13 13 13 14 14 14 15 14 14 13 13 13 13 14 15 15 14 13 13 14 15 15 14 12 10 9 7 6 5 4 4 3
19 18 18 17 17 17 17 17 16 15 14 14 14 14 14 15 15 15 15 15 14 14 14 14 14 13 13 13 13 13 13 13 14 14 14 14 14 13 13 13 14 14 15 15 15 14 14 14 14 14 14 15 15 15 14 14 15 15 14 13 12 10 9 8 7 6 5 4 3
18 18 18 18 18 18 18 17 17 16 15 14 13 14 14 14 14 14 15 15 15 14 14 14 14 14 13 13 12 12 12 12 12 13 13 13 13 13 13 13 14 15 15 16 15 15 15 15 15 14 14 15 15 15 15 14 15 15 15 14 12 11 10 9 7 6 5 4 4
17 17 17 17 18 18 18 18 17 16 15 14 13 13 13 13 13 14 14 15 15 15 14 14 14 14 14 13 13 12 11 11 11 11 11 11 11 12 12 13 14 15 16 17 16 16 15 15 15 14 14 15 15 16 15 15 15 15 15 14 12 11 11 9 7 6 5 4 4
17 17 17 17 17 17 18 17 17 17 16 15 14 13 12 12 12 13 14 15 15 15 15 15 14 14 14 14 13 12 11 10 10 10 10 10 10 10 11 12 14 16 17 18 17 17 16 16 15 14 14 14 15 15 15 14 15 15 15 14 12 12 11 10 8 6 5 5 4
17 17 17 17 17 17 17 17 17 16 16 15 14 13 12 11 11 12 13 14 15 15 15 15 15 15 15 15 14 13 12 11 10 10 10 10 10 10 10 11 13 16 18 19 19 18 17 16 15 14 14 14 14 14 14 14 15 15 15 14 13 13 12 10 8 7 6 5 5
17 17 17 17 17 17 17 17 17 16 16 15 14 13 12 11 11 11 12 13 14 15 15 15 15 15 15 15 14 14 13 12 11 10 10 10 10 10 10 11 13 15 18 20 21 20 19 18 16 14 14 14 14 14 14 15 15 15 15 14 14 14 12 10 9 8 7 6 6
17 17 17 17 17 17 17 17 17 16 16 15 15 14 13 12 11 11 12 12 13 14 15 15 15 15 15 14 14 14 13 13 12 11 10 10 10 10 11 12 13 15 18 20 21 21 20 19 16 15 14 14 13 14 14 15 15 15 14 14 15 15 13 11 9 8 8 7 6
16 16 16 16 16 16 17 17 16 16 15 15 15 14 14 13 12 12 12 12 13 14 15 15 15 15 15 14 14 14 14 13 12 11 11 10 10 10 11 12 13 15 17 20 22 22 21 20 17 16 15 14 12 13 14 15 15 14 14 14 15 15 13 11 10 9 8 7 6
15 16 16 16 16 16 16 16 16 16 15 15 15 15 14 13 13 12 12 12 12 13 14 15 15 15 15 14 14 14 14 14 13 12 11 11 10 10 11 12 13 14 16 19 21 22 22 20 18 17 15 13 12 12 14 15 14 14 14 14 15 15 14 12 11 10 9 7 6
15 15 15 15 16 16 16 16 16 16 15 15 15 15 15 14 14 13 12 12 12 13 14 14 15 15 15 15 14 14 14 14 14 13 12 12 11 11 11 12 13 14 16 18 20 21 22 21 19 17 16 14 13 13 15 15 14 13 13 14 15 15 15 13 12 10 9 8 7
15 15 15 15 15 16 16 16 16 16 16 15 15 16 16 16 15 14 13 13 13 13 13 14 15 15 15 15 15 14 14 14 14 14 13 13 12 12 12 12 12 13 15 17 19 21 22 21 20 18 17 16 15 15 16 16 15 13 13 14 15 15 15 14 12 11 9 8 7
15 15 15 15 15 16 16 16 16 16 16 16 16 16 17 17 16 15 14 13 13 13 13 14 15 15 15 15 15 15 15 15 15 15 14 14 13 12 12 12 13 13 14 16 18 20 21 21 21 19 18 17 17 16 16 16 14 13 13 13 14 15 15 14 13 11 10 9 7
15 15 15 15 16 16 16 16 17 17 17 17 17 17 17 17 17 16 15 14 14 14 14 14 15 15 15 15 15 15 15 15 15 15 14 14 13 13 13 13 13 13 14 15 17 19 21 21 21 19 18 17 16 14 14 15 14 13 12 13 14 15 15 14 13 11 10 9 8
15 15 15 16 16 16 16 17 17 17 18 18 18 18 18 17 17 17 16 15 15 15 15 15 15 15 15 15 15 15 15 15 15 15 15 14 14 13 13 13 13 13 14 14 16 18 19 20 20 19 18 17 15 13 13 15 14 13 12 13 14 15 15 15 13 12 10 9 8
16 16 16 16 16 17 17 17 17 18 18 19 19 19 19 18 18 17 17 17 16 16 15 15 15 15 15 16 16 16 15 16 16 15 15 14 14 14 13 14 14 14 14 14 15 17 18 19 19 19 18 17 15 14 14 15 14 13 12 13 14 15 16 15 14 12 11 10 8
16 16 16 17 17 17 17 17 17 18 18 19 19 20 20 19 19 18 17 17 17 16 16 16 16 15 15 15 15 16 16 16 16 15 15 14 14 14 14 14 14 14 14 14 15 16 17 18 19 19 19 17 15 15 15 15 14 13 13 14 15 16 16 16 14 13 11 10 9
17 17 17 17 18 18 18 18 18 18 18 19 19 20 20 20 19 18 18 17 17 17 16 16 16 16 16 15 16 16 16 16 16 15 15 15 14 14 14 14 14 13 14 14 14 15 16 17 18 19 19 17 15 15 16 15 14 13 14 14 15 16 16 16 15 13 12 11 10
18 18 18 19 19 19 20 20 19 19 19 19 19 20 20 20 19 19 18 17 17 17 16 16 16 16 16 16 16 16 16 16 16 15 15 15 14 14 14 14 13 13 14 14 15 15 15 16 18 19 19 18 15 16 17 16 15 15 15 15 15 15 16 16 15 14 13 12 11
19 19 19 20 20 20 21 21 21 20 20 20 20 20 20 20 19 19 18 18 17 17 16 16 16 16 16 16 16 16 16 16 16 15 15 15 14 14 14 13 13 14 14 15 15 15 15 15 17 18 19 19 17 16 18 17 17 16 16 15 14 15 16 16 15 14 13 13 12
20 20 20 21 21 21 21 22 22 22 21 20 20 20 19 19 19 19 19 18 17 17 16 16 16 16 16 16 16 16 16 16 16 15 15 15 14 14 14 13 13 14 15 15 15 14 14 15 16 18 19 20 18 17 17 18 18 17 16 15 14 15 15 15 15 15 15 14 13
21 21 22 22 21 21 21 22 22 22 21 21 20 19 19 19 19 19 18 18 18 17 16 16 16 15 16 16 16 16 16 16 16 16 15 15 14 14 14 13 13 14 15 15 15 14 14 14 15 17 19 20 19 17 17 17 17 16 15 15 15 15 15 14 14 15 15 15 14
22 22 23 22 22 21 22 22 22 22 22 21 20 19 19 19 18 18 18 18 18 17 17 16 16 15 15 16 16 16 15 15 16 16 15 15 14 14 14 13 13 14 15 15 15 14 14 14 15 17 19 20 19 17 16 17 17 16 16 15 15 15 15 14 15 16 16 16 15
23 23 24 23 22 22 21 21 22 22 21 21 20 20 19 19 18 18 18 18 18 17 17 16 16 15 15 15 16 15 15 15 15 15 15 15 15 14 14 13 13 13 14 15 15 15 14 14 15 17 19 20 20 17 16 16 17 17 17 17 16 15 15 15 16 16 17 17 16
23 24 25 24 24 22 21 21 21 22 22 21 21 20 20 19 18 18 17 17 17 17 17 16 16 15 15 15 15 15 15 15 15 15 15 15 15 14 14 13 13 13 14 15 16 16 15 15 16 17 18 20 21 19 17 17 18 19 19 17 15 14 14 16 17 18 18 18 17
24 25 26 25 24 23 22 21 21 21 22 22 21 21 20 19 18 18 17 17 17 17 16 16 16 15 15 15 15 15 15 15 15 15 15 15 15 14 14 13 13 12 13 14 15 16 16 16 17 17 18 20 22 21 20 19 19 20 19 17 14 13 14 16 17 18 18 18 18
25 26 26 26 25 23 22 21 21 21 21 22 21 21 20 19 18 18 17 17 17 17 17 16 16 15 15 15 15 15 15 15 15 15 15 15 15 14 14 13 13 12 13 14 15 16 17 17 18 18 19 20 22 23 23 22 21 21 20 16 13 12 14 16 18 18 19 19 19
26 27 27 26 25 23 22 21 21 21 21 21 21 21 20 19 19 18 17 17 17 17 17 17 16 16 15 15 15 15 15 15 15 15 15 15 15 14 14 13 13 12 12 13 15 16 17 17 18 18 19 18 20 22 23 24 23 23 20 15 12 12 14 16 18 18 19 19 19
27 27 27 26 24 23 22 21 21 21 21 21 21 20 20 19 19 18 17 17 17 17 17 17 16 16 15 15 15 15 15 15 15 15 15 15 15 15 14 14 13 12 12 13 15 16 17 17 17 18 18 17 18 20 22 23 24 23 20 15 12 12 14 16 17 18 19 20 20
27 27 26 25 24 23 23 22 21 21 21 21 21 20 20 19 19 18 17 17 17 17 17 17 17 16 16 15 15 15 15 16 16 16 16 16 15 15 14 14 13 12 12 13 14 16 16 16 16 17 18 17 17 18 20 21 23 22 19 15 12 13 14 16 17 19 20 21 21
28 27 27 26 25 24 23 22 22 21 21 21 21 20 20 19 18 18 17 17 17 16 16 17 17 17 16 15 15 15 15 15 16 16 16 16 16 15 15 14 13 12 12 13 14 15 16 15 15 16 18 18 18 19 21 21 22 20 17 14 13 14 15 17 18 19 20 21 22
28 28 28 27 25 24 24 23 22 22 21 21 21 20 20 19 18 18 17 17 17 16 16 16 16 17 16 16 15 15 15 15 15 16 16 16 16 15 15 14 13 12 13 13 14 15 16 15 14 15 17 19 20 21 22 23 22 19 16 15 14 15 16 17 19 20 21 22 22
28 28 28 27 26 25 24 24 23 22 22 21 21 20 20 19 19 18 17 17 16 16 16 16 16 16 17 17 16 15 15 15 15 15 16 16 16 16 15 14 13 12 13 13 14 15 16 17 16 16 17 19 22 23 23 24 22 19 16 15 15 17 18 19 20 21 21 22 22
27 27 27 27 27 26 25 24 23 23 22 22 21 20 20 19 19 18 17 17 16 16 16 16 16 16 17 17 16 16 15 15 15 15 16 16 16 16 15 14 13 13 13 14 15 16 17 18 17 17 18 20 22 23 24 24 21 18 16 15 16 18 19 20 21 21 22 22 22
27 27 27 27 26 26 25 24 24 23 22 22 21 20 20 19 19 18 17 17 16 16 17 17 16 16 16 17 17 16 16 15 15 16 16 16 16 16 15 14 13 13 13 14 15 16 18 20 19 18 19 21 23 24 24 23 21 18 16 16 17 19 20 21 22 21 22 22 22
27 27 27 26 26 25 25 24 24 23 22 21 21 20 20 19 19 18 17 17 17 17 17 17 17 17 17 17 17 17 16 15 15 16 16 16 16 16 15 15 14 13 13 14 16 17 18 20 20 19 19 22 23 24 24 23 21 18 16 16 18 20 22 22 22 22 21 21 22
27 26 26 25 25 25 25 24 24 23 22 21 20 20 19 19 19 18 18 17 17 17 17 18 18 17 17 17 17 17 17 16 15 15 16 16 16 16 16 15 14 14 14 15 16 17 18 20 21 20 19 21 23 24 23 22 20 18 17 17 19 22 23 23 23 22 21 21 22
Wind_Direction
348 349 345 336 323 312 302 294 288 285 284 284 282 280 276 272 266 261 256 253 254 255 256 257 261 265 269 273 278 283 287 291 291 286 279 275 266 254 244 240 239 238 233 224 216 215 221 229 235 237 234 230 232 235 235 233 231 232 233 231 224 216 212 213 209 207 212 224 238
341 345 346 343 335 323 310 300 292 286 283 282 281 281 279 276 272 267 261 256 255 255 256 256 258 260 263 267 273 278 282 285 283 270 261 263 264 258 248 241 240 241 237 228 220 218 222 229 235 238 238 237 237 236 233 230 228 227 227 227 224 220 216 214 211 210 214 226 239
334 337 341 342 339 332 322 311 301 292 285 280 279 279 279 278 276 272 267 262 260 259 258 257 257 258 260 263 268 273 277 280 280 273 266 263 265 261 251 242 240 240 238 231 223 220 223 227 230 234 238 244 246 245 239 233 229 225 222 221 220 218 216 214 211 210 216 227 239
328 330 334 337 338 336 331 321 310 299 290 284 280 278 278 279 278 277 274 270 266 263 261 260 260 259 259 260 263 268 272 276 278 277 275 272 270 264 254 243 240 239 236 230 223 220 223 226 227 230 238 246 252 253 250 242 236 229 223 218 216 215 215 212 209 210 216 227 235
325 326 328 330 333 334 332 325 316 305 296 290 285 280 278 278 279 279 278 275 271 268 266 264 263 262 261 261 261 263 267 271 274 277 277 276 273 266 255 244 238 236 232 226 220 219 222 225 225 229 236 245 254 258 257 249 244 238 230 220 216 215 214 213 212 211 215 222 227
325 323 323 324 326 329 330 329 322 313 304 297 290 284 279 277 277 278 279 278 276 272 269 267 265 264 263 262 262 262 263 266 269 273 275 276 273 268 257 246 237 232 227 223 218 217 220 225 225 227 234 243 251 254 253 249 246 243 236 227 219 217 217 217 214 213 214 218 220
324 322 320 319 320 323 326 328 326 321 313 303 295 289 284 278 276 276 278 278 277 275 272 269 267 266 265 264 263 263 263 264 266 269 271 274 274 269 260 247 235 228 223 220 217 217 220 224 224 225 231 240 248 252 253 250 248 244 239 232 224 220 220 220 216 214 214 216 217
324 320 317 316 316 318 322 326 327 325 319 309 302 295 288 281 276 275 275 276 276 276 274 272 271 269 268 266 265 264 263 263 264 266 268 270 271 267 259 245 233 224 219 217 216 217 221 224 224 224 228 237 246 252 254 254 251 246 241 235 228 223 222 221 217 215 215 214 214
324 320 317 315 313 314 318 322 325 326 323 316 308 301 294 286 279 274 273 274 275 275 275 274 272 271 270 268 265 262 260 259 259 260 262 262 262 261 255 244 232 222 216 214 214 217 221 224 222 221 225 234 244 251 256 258 254 249 244 238 233 228 225 221 218 217 215 212 211
327 322 317 314 312 312 314 318 321 324 325 321 314 308 300 292 282 276 273 273 273 274 275 275 273 272 271 269 266 262 259 257 255 255 256 256 256 255 251 243 232 222 216 214 214 216 220 223 221 219 222 232 242 251 257 259 255 250 245 239 236 231 227 220 218 217 215 212 210
329 324 320 316 312 311 312 314 317 320 322 322 317 311 304 295 287 280 275 273 273 274 274 274 273 273 272 271 268 265 261 258 256 254 253 254 253 252 249 242 232 223 217 214 214 217 219 221 220 218 221 230 241 250 256 257 254 249 244 239 235 232 227 220 217 216 214 210 206
329 326 322 318 314 311 310 310 313 316 319 320 318 312 306 299 293 285 279 275 272 272 271 272 273 273 273 272 271 268 265 262 259 256 254 253 253 251 248 243 234 226 219 216 216 218 220 221 220 218 219 227 237 248 254 256 253 248 242 237 233 230 226 221 217 215 212 206 202
330 327 324 321 316 312 308 308 308 311 314 316 316 313 308 302 297 291 283 277 272 270 270 270 271 272 272 272 271 270 268 266 263 260 257 255 253 251 247 242 236 229 222 218 218 220 222 223 221 219 218 221 231 244 253 257 254 248 240 234 231 229 226 222 218 214 210 204 199
329 328 326 322 318 314 310 307 306 307 309 312 313 312 309 304 301 295 288 280 275 271 269 268 269 269 270 270 269 268 268 267 266 265 262 259 257 252 248 243 238 232 225 221 220 221 223 224 223 221 218 214 218 234 249 255 254 248 240 233 230 227 225 222 218 213 208 203 198
328 328 326 324 321 318 314 310 306 305 306 308 309 310 309 306 303 298 291 284 279 274 270 267 266 266 267 268 267 266 266 266 266 266 264 262 259 254 249 245 240 234 228 223 221 222 224 224 223 221 217 209 207 222 239 250 252 249 242 236 231 227 224 221 216 211 205 200 197
328 328 327 326 324 322 318 313 308 305 304 305 306 307 307 307 306 303 297 288 282 276 271 267 264 263 264 265 265 265 265 265 264 264 264 262 260 256 251 246 241 235 230 225 222 222 223 223 222 220 217 210 207 217 232 244 249 248 244 238 232 227 223 220 215 209 202 196 195
330 330 329 328 327 325 322 318 312 307 304 302 303 304 305 306 307 306 302 296 288 280 273 267 263 261 261 261 262 263 263 263 263 263 263 262 260 258 253 247 241 236 231 226 223 221 221 222 221 219 217 213 212 218 230 241 246 245 241 236 231 227 223 220 215 207 199 194 192
332 332 331 330 330 328 325 321 316 311 306 302 301 301 302 304 306 307 306 302 295 285 276 269 263 260 258 258 259 260 261 261 261 261 262 261 261 259 254 248 241 235 230 227 224 221 220 220 219 217 215 213 211 217 230 241 243 241 237 232 229 225 223 220 215 206 197 191 189
335 334 333 333 331 328 326 323 319 314 309 303 300 298 299 300 302 304 305 304 300 292 282 272 265 260 257 256 256 258 258 259 259 259 260 260 260 259 255 248 241 235 230 227 224 221 219 218 217 215 213 210 204 207 224 238 240 237 232 228 225 223 221 220 214 205 195 189 187
336 336 334 333 331 328 326 323 321 317 312 306 301 298 297 297 298 300 302 303 302 297 288 277 268 261 256 254 254 255 256 257 258 258 258 259 259 258 255 248 241 234 229 226 223 221 219 218 216 214 211 207 197 199 215 231 236 234 230 226 223 220 219 218 213 203 192 185 184
336 335 333 331 330 328 326 324 322 320 316 312 306 301 297 295 295 296 298 300 302 300 294 283 272 263 256 253 252 252 253 255 256 256 257 257 258 257 254 248 241 234 229 224 221 219 218 217 216 214 210 204 197 200 213 224 230 232 230 226 222 219 218 216 210 201 190 183 182
334 333 331 330 330 328 327 326 324 322 319 316 310 304 299 296 294 294 295 297 301 301 297 288 277 266 257 252 250 249 250 252 254 255 256 256 256 255 253 248 242 235 228 222 217 215 216 216 216 214 208 200 198 205 214 219 224 227 229 226 222 219 218 215 208 198 189 183 181
333 332 331 331 330 329 328 327 325 323 320 317 313 308 303 298 295 293 293 294 298 301 299 293 282 270 259 252 248 247 248 249 251 253 254 255 255 254 252 248 242 234 226 218 213 212 214 217 216 212 205 194 197 209 217 216 219 223 227 226 223 220 218 214 206 196 188 183 181
331 331 331 331 331 330 328 327 324 322 320 318 315 312 307 302 297 294 292 293 295 298 299 295 287 275 263 254 248 245 246 247 249 251 252 253 253 253 251 247 242 233 223 215 211 210 213 217 218 212 202 191 194 210 220 218 218 220 224 225 224 222 219 213 205 195 187 182 180
329 330 330 330 330 328 327 325 323 321 319 318 316 313 310 305 300 296 293 292 293 295 298 297 290 280 267 256 248 244 243 245 247 248 250 251 252 251 249 246 241 233 224 217 211 210 214 218 219 213 203 191 191 206 222 225 222 221 222 223 223 222 219 213 203 194 187 182 179
328 328 329 328 328 327 326 324 323 321 319 317 315 314 311 308 303 298 294 291 291 292 295 297 293 284 272 259 250 244 242 243 244 246 248 249 250 250 248 245 240 233 227 221 212 209 213 219 218 213 203 192 189 200 219 230 229 226 223 222 221 220 217 210 200 193 188 183 179
327 327 327 326 326 325 325 324 322 320 318 317 315 314 312 309 305 300 296 292 290 290 293 295 294 287 275 262 252 247 244 243 243 245 246 247 248 248 247 245 240 234 229 225 215 209 211 218 216 211 203 193 187 194 212 228 235 233 227 223 221 219 214 207 198 192 189 184 180
327 325 324 324 324 324 324 323 322 320 318 317 315 314 313 311 307 302 297 293 290 289 290 291 292 289 279 265 255 248 245 243 243 243 244 245 245 246 246 245 241 235 230 226 218 211 209 214 213 209 203 194 188 193 208 222 232 234 231 225 221 218 214 207 200 194 189 185 181
326 323 322 321 322 323 324 323 322 320 318 317 315 314 313 311 308 304 298 294 290 288 287 288 290 288 281 269 257 249 245 243 242 242 243 243 244 244 245 244 242 237 230 225 220 214 209 208 206 206 203 198 192 193 203 217 227 232 231 225 221 217 213 208 202 196 190 186 183
324 322 321 320 321 322 323 323 322 320 318 316 315 314 313 311 309 305 300 295 291 288 286 285 286 285 281 272 260 251 245 242 241 241 241 242 242 243 244 243 242 237 231 224 219 214 210 205 202 200 201 201 198 197 202 214 225 230 230 225 219 214 211 208 203 197 190 186 184
323 322 321 321 321 322 323 322 321 319 317 316 315 314 313 311 309 307 302 298 292 287 283 282 281 282 280 275 264 254 245 241 239 239 240 241 241 242 242 242 241 237 230 223 216 212 208 205 200 196 196 201 204 204 205 212 222 229 230 225 217 211 209 208 203 197 191 187 185
323 322 323 323 323 323 322 322 320 319 317 315 315 314 313 312 310 308 304 299 293 288 283 280 278 278 277 275 268 257 246 240 238 238 238 239 240 241 241 241 239 235 229 221 214 209 206 203 199 193 191 199 208 212 212 214 222 228 229 223 215 209 209 207 203 197 192 188 186
324 324 325 325 325 324 322 321 319 318 316 315 314 313 313 312 311 309 305 300 295 290 285 280 277 275 275 273 269 259 248 240 236 235 235 237 238 238 239 239 237 233 227 221 214 207 203 200 197 191 187 193 209 220 222 222 225 228 228 221 212 208 207 206 203 198 193 189 187
325 326 326 326 325 324 322 321 319 317 315 314 313 313 313 312 311 310 307 303 297 291 285 280 276 274 273 272 269 261 251 240 234 233 233 234 235 236 237 237 236 232 226 219 214 206 198 194 194 191 187 190 207 222 230 231 231 230 226 218 209 205 206 205 202 198 194 191 189
326 327 327 327 326 324 323 321 319 317 315 313 312 312 313 313 312 311 309 306 300 293 287 281 276 272 271 270 269 263 254 243 236 232 231 232 233 233 234 234 234 230 224 218 213 204 193 185 191 193 191 192 206 220 229 233 233 229 223 214 207 205 204 203 201 199 196 193 190
326 327 328 327 326 325 323 322 320 317 315 313 312 312 312 313 312 312 310 307 302 295 289 282 276 271 267 266 266 263 256 246 237 232 230 231 231 231 232 232 231 228 222 216 212 201 187 178 189 199 200 197 205 215 224 230 231 228 220 211 205 203 203 202 201 200 197 195 192
325 326 327 326 326 325 324 322 320 318 316 313 312 312 312 312 312 311 310 308 303 297 290 284 277 271 266 263 262 261 257 248 238 232 229 229 230 230 230 230 228 225 220 215 211 198 183 175 187 202 207 205 208 214 221 227 228 225 217 209 203 201 201 201 201 200 199 196 194
324 325 325 325 324 324 323 322 321 319 316 313 312 311 311 311 310 310 310 308 304 299 293 286 279 272 266 262 260 260 257 249 239 232 228 227 227 228 228 228 226 223 218 213 210 198 183 176 186 200 209 212 214 217 221 225 226 222 214 207 202 199 199 200 201 201 199 197 195
322 323 323 323 323 322 322 322 321 318 316 313 311 310 309 309 309 309 308 306 303 299 294 289 282 275 268 263 260 258 256 250 240 232 227 225 225 226 227 226 224 220 215 211 208 199 187 179 185 197 209 215 218 220 222 225 224 220 213 205 201 198 198 200 201 201 200 197 195
320 321 321 321 321 321 321 321 320 318 316 313 310 308 308 308 308 307 305 303 299 296 293 289 284 278 271 264 260 257 255 250 241 232 226 224 223 224 225 225 222 218 213 209 207 201 193 185 185 195 208 216 220 223 224 224 223 219 212 204 200 198 197 199 201 201 199 197 195
318 319 320 320 320 321 320 320 319 317 315 312 309 307 307 307 306 305 303 300 296 293 291 288 284 279 272 266 260 257 254 249 241 232 226 223 222 223 223 223 221 217 212 208 205 203 198 191 187 192 206 218 222 225 225 224 223 218 210 203 200 199 198 199 200 200 198 196 194